Location: Newark
(41.8083°N, 72.2500°W)
Time: 19:53:44
(UTC+00:00)

Courier 1B - Pass Details

Date: 03 December 2021
Orbit: 962 x 1209 km, 28.3° (Epoch: 19 January)

Event Time Altitude Azimuth Distance (km) Brightness Sun altitude
Rises 19:49:53 0° 204° (SSW) 4,065 12.2 12.3°
Reaches altitude 10° 19:54:59 10° 176° (S) 3,063 10.8 11.6°
Maximum altitude 19:57:39 12° 155° (SSE) 2,878 10.3 11.2°
Drops below altitude 10° 20:00:18 10° 134° (SE) 3,008 10.1 10.9°
Sets 20:05:10 0° 106° (ESE) 3,907 10.3 10.2°
